SCP
0 -0 0 0 0 -0 0 -0 -0 -0 -0 -0 -0 -0 -0 -0 -0 -0 -0 -0 -0 -0 0 0 0 0 0 0 0 0 0 0 0 0 0 0 0 0 -0 0 0 0 -0
0 0 0 0 -0 0 -0 0 -0 -0 -0 -0 -0 -0 -0 -0 -0 -0 -0 -0 -0 -0 -0 -0 0 0 -0 0 0 0 0 0 -0 -0 0 0 0 0 -0 -0 -0 0 -0
0 0 -0 -0 -0 -0 -0 0 0 -0 -0 -0 -0 -0 -0 -0 -0 0 -0 -0 -0 -0 -0 0 -0 -0 0 0 0 0 0 0 -0 -0 -0 -0 0 0 0 -0 -0 -0 -0
-0 0 -0 0 -0 -0 0 -0 0 -0 -0 -0 -0 -0 -0 -0 -0 0 0 0 -0 0 0 -0 0 0 0 0 0 0 0 0 -0 0 -0 -0 0 0 0 0 0 0 -0
-0 -0 -0 0 -0 0 0 -0 0 0 -0 -0 -0 0 0 0 0 0 -0 -0 0 0 0 0 0 0 0 0 0 0 0 0 0 0 0 0 0 0 0 -0 0 0 -0
-0 -0 -0 0 0 0 0 0 0 0 0 0 0 0 -0 -0 -0 -0 -0 -0 -0 -0 0 0 0 0 0 0 0 0 0 0 0 0 0 0 -0 0 0 -0 -0 -0 -0
0 -0 -0 0 0 -0 0 -0 0 0 0 -0 0 -0 -0 -0 -0 -0 -0 -0 -0 -0 -0 0 0 0 0 0 -0 0 -0 0 0 0 -0 -0 -0 0 0 -0 -0 0 -0
0 0 -0 -0 -0 -0 -0 0 0 -0 0 0 -0 -0 0 0 0 0 -0 -0 -0 -0 -0 -0 -0 -0 0 0 0 0 0 0 -0 -0 -0 -0 -0 0 0 -0 -0 -0 0
0 0 0 0 0 -0 -0 -0 0 0 0 0 0 0 0 0 0 0 0 0 0 0 0 0 -0 -0 0 0 0 0 0 0 -0 -0 -0 -0 0 0 0 -0 0 -0 -0
0 0 0 0 0 0 0 0 0 0 0 0 0 0 0 -0 -0 0 -0 0 0 0 0 -0 -0 -0 -0 0 0 0 0 0 -0 -0 -0 -0 0 0 0 0 0 0 -0
0 0 0 0 -0 0 0 0 0 -0 0 -0 -0 -0 0 -0 0 0 -0 -0 -0 -0 -0 -0 -0 -0 -0 -0 -0 0 0 -0 -0 -0 -0 -0 -0 -0 -0 0 0 0 -0
-0 -0 -0 -0 0 0 0 0 0 0 0 0 0 0 -0 -0 0 0 -0 -0 -0 -0 -0 -0 -0 -0 -0 -0 0 0 -0 0 -0 0 -0 0 -0 -0 -0 -0 -0 -0 -0
-0 -0 -0 -0 -0 -0 -0 -0 -0 -0 -0 -0 -0 0 -0 0 -0 -0 0 -0 -0 -0 0 -0 -0 0 -0 0 0 -0 -0 -0 -0 0 0 -0 -0 -0 -0 -0 -0 0 0
0 -0 -0 -0 -0 -0 -0 -0 -0 -0 -0 -0 -0 -0 -0 -0 -0 0 0 0 0 0 0 0 -0 0 -0 -0 -0 -0 -0 0 0 -0 0 0 -0 -0 -0 -0 -0 -0 -0
0 -0 -0 -0 -0 -0 -0 -0 -0 -0 -0 -0 0 -0 -0 0 0 0 0 0 0 0 -0 -0 -0 -0 -0 -0 -0 -0 0 -0 -0 0 0 -0 -0 -0 -0 -0 -0 -0 -0
0 0 -0 -0 -0 -0 -0 -0 -0 -0 -0 0 0 -0 -0 0 0 0 0 0 0 0 0 0 0 0 0 -0 -0 -0 -0 0 0 0 0 0 -0 -0 -0 -0 -0 -0 -0
-0 -0 -0 -0 -0 -0 -0 0 0 0 0 0 -0 -0 -0 -0 0 0 0 0 0 0 0 0 0 -0 -0 -0 -0 -0 -0 0 0 -0 0 0 -0 -0 -0 -0 -0 -0 -0
-0 -0 -0 -0 -0 0 -0 -0 0 -0 0 -0 -0 -0 -0 -0 -0 -0 0 0 0 0 0 -0 0 -0 0 0 0 -0 0 0 -0 -0 -0 -0 0 -0 0 -0 -0 -0 -0
-0 -0 -0 -0 -0 0 0 -0 0 -0 0 -0 -0 -0 -0 -0 -0 0 0 0 0 0 0 0 -0 -0 -0 -0 -0 -0 0 -0 -0 -0 -0 -0 -0 0 -0 -0 -0 -0 -0
-0 -0 -0 0 0 0 0 0 0 0 0 0 -0 -0 -0 -0 -0 -0 0 0 0 0 0 0 -0 -0 -0 -0 -0 -0 -0 -0 0 0 0 -0 -0 -0 -0 -0 -0 -0 -0
0 0 -0 0 0 0 0 0 0 -0 -0 -0 0 0 0 -0 -0 -0 0 0 0 0 0 0 0 0 -0 -0 -0 -0 -0 -0 -0 -0 -0 -0 0 0 0 0 -0 -0 -0
-0 0 0 0 0 0 0 0 -0 0 -0 -0 0 0 0 0 0 -0 -0 -0 0 0 0 0 0 0 0 0 0 -0 -0 -0 -0 -0 -0 -0 0 0 0 0 0 0 -0
-0 -0 -0 -0 -0 -0 -0 -0 0 0 -0 0 0 0 0 0 0 0 0 -0 -0 -0 0 0 -0 -0 0 -0 0 -0 -0 0 0 -0 -0 0 0 0 0 0 0 0 0
-0 -0 -0 -0 -0 -0 -0 -0 -0 -0 0 0 0 0 0 0 -0 0 0 -0 -0 0 -0 0 -0 -0 0 0 0 -0 0 -0 0 0 0 0 0 0 0 0 0 0 0
-0 -0 -0 -0 -0 -0 -0 -0 -0 0 -0 -0 -0 0 0 -0 -0 -0 0 -0 0 0 0 0 0 -0 0 -0 -0 0 0 0 0 0 0 0 0 0 0 0 0 0 0
-0 -0 -0 -0 -0 -0 -0 -0 -0 -0 -0 0 0 -0 -0 0 -0 -0 0 -0 0 0 0 0 0 0 0 0 0 0 0 -0 -0 0 0 0 0 0 0 0 0 0 0
Wind_Speed_500mb
37 37 44 45 46 48 50 50 49 48 47 45 45 45 43 41 39 36 38 37 38 42 44 47 47 43 38 37 36 37 34 34 30 31 31 31 30 29 27 28 30 30 31
46 45 48 47 51 50 52 51 50 47 44 42 40 38 38 39 39 37 36 36 37 39 44 44 41 37 31 31 35 37 31 27 28 29 26 27 26 27 27 29 28 30 31
50 49 52 50 51 51 49 46 44 41 39 38 35 36 36 38 40 38 36 36 36 38 38 38 33 28 24 26 29 27 26 24 26 26 25 22 24 23 26 28 28 27 33
51 51 52 52 52 50 46 42 40 38 37 36 35 35 34 36 38 34 34 34 34 34 34 32 28 24 23 24 23 21 24 30 26 21 24 21 21 19 27 25 28 27 30
51 52 52 50 51 48 43 39 38 37 36 37 36 33 33 33 32 29 28 29 28 30 29 29 26 22 20 21 19 18 17 21 15 16 19 17 16 22 27 22 27 28 30
51 51 51 50 50 46 41 37 34 36 36 35 33 32 31 30 28 25 24 24 25 24 24 22 22 18 16 16 17 21 17 14 11 15 15 18 16 25 23 21 26 27 25
52 50 49 48 45 42 39 33 31 32 33 32 30 28 27 26 24 22 20 19 20 20 19 19 20 19 17 14 13 15 16 10 9 13 16 18 20 21 20 17 21 22 20
49 49 46 44 41 37 33 30 29 29 30 29 26 23 21 19 18 18 17 16 17 16 15 15 15 17 18 15 11 15 11 4 8 14 12 9 18 18 17 17 16 21 22
43 46 45 42 38 34 30 29 28 26 26 24 22 19 16 15 14 13 13 13 13 11 12 12 13 14 18 20 15 13 13 7 6 20 16 8 13 18 16 14 15 20 22
45 42 41 40 37 34 31 28 25 23 21 19 16 14 13 11 10 12 10 11 11 11 11 10 10 12 14 18 19 17 15 13 10 18 17 8 10 15 17 17 17 18 21
46 42 39 36 34 31 28 26 23 22 20 18 17 15 13 14 11 14 9 6 6 8 9 9 10 13 15 16 18 16 16 16 16 17 18 15 11 15 18 18 18 20 22
45 43 38 34 31 28 25 24 22 21 20 19 19 16 18 14 13 11 5 4 5 6 8 8 10 12 14 18 19 16 14 23 24 18 16 18 18 19 23 21 23 24 23
41 41 39 34 30 27 26 25 24 24 24 24 22 21 19 15 10 7 3 4 1 5 6 12 11 9 15 16 24 15 23 17 18 18 21 26 28 24 26 28 29 25 21
43 37 36 33 29 28 27 27 28 26 20 20 17 16 14 10 6 3 2 5 4 6 10 15 11 14 10 16 17 22 21 23 18 20 17 30 30 25 26 37 37 35 29
45 44 42 39 33 30 31 30 29 23 21 18 11 12 15 11 6 7 9 12 14 15 15 15 19 16 12 20 15 19 22 24 20 17 17 19 27 28 25 27 35 38 35
46 43 40 36 37 30 31 27 23 20 13 11 10 11 10 7 8 13 14 18 20 24 23 20 21 18 14 16 17 24 22 24 24 12 15 21 24 23 19 24 31 29 32
47 41 38 35 36 32 31 25 22 19 13 12 9 10 7 6 12 18 20 24 24 25 25 31 32 27 23 19 18 19 23 24 24 21 21 18 24 23 23 23 26 26 28
49 45 36 36 33 32 30 24 21 21 18 8 10 12 8 8 11 13 18 22 25 28 30 31 26 20 25 21 16 22 28 29 23 20 16 13 14 17 14 16 20 26 26
50 43 36 38 34 34 31 27 25 24 19 18 13 10 9 9 11 8 13 18 24 27 23 19 19 19 19 17 14 17 20 21 21 20 18 14 7 10 6 8 10 17 24
52 48 38 35 31 32 32 30 33 42 30 23 17 14 17 16 16 15 13 20 19 17 4 11 20 22 19 15 14 15 18 19 19 18 14 11 7 7 6 10 8 4 13
60 54 45 41 33 32 41 39 37 40 33 30 22 19 11 16 19 19 15 16 15 14 8 12 16 14 11 11 12 12 13 11 11 12 14 11 2 9 8 7 6 4 1
62 59 52 47 40 36 38 40 39 36 30 28 21 22 27 22 15 18 14 14 9 10 8 12 11 9 8 6 5 4 5 8 9 9 4 5 8 13 12 6 6 1 5
70 63 58 55 48 40 34 40 43 38 36 32 24 17 15 21 16 14 9 10 3 6 6 6 5 3 4 4 7 4 3 2 11 11 7 9 9 10 10 7 4 2 4
72 69 64 57 53 43 39 38 43 41 38 27 21 25 17 13 15 9 7 7 2 5 4 1 1 4 5 6 7 8 6 5 4 8 10 11 9 6 6 3 3 4 5
74 72 66 57 49 42 43 39 42 45 37 20 14 6 9 11 10 5 7 4 4 4 1 3 4 2 3 5 7 7 7 7 9 7 12 14 13 8 7 6 4 5 1
79 78 70 60 50 45 46 42 46 49 38 29 23 17 16 13 12 6 3 4 7 3 2 2 2 5 6 6 8 12 12 11 9 9 12 21 21 15 15 10 7 5 6
Wind_Direction_500mb
149 139 138 136 130 131 134 134 133 130 129 128 130 130 129 124 119 123 117 116 112 120 122 123 122 118 115 110 108 104 98 98 108 116 118 123 123 123 130 130 129 125 121
144 143 145 139 135 134 132 133 133 131 128 128 129 132 131 129 129 127 120 116 114 123 128 129 125 118 111 107 112 114 109 108 108 113 120 124 123 125 133 133 134 125 125
147 144 147 145 142 139 138 135 132 131 131 131 132 132 132 137 136 131 125 119 123 128 132 135 132 122 113 113 117 122 94 124 120 120 116 124 121 122 134 136 134 131 132
147 147 150 149 146 145 144 142 141 141 141 139 137 134 134 135 139 136 128 125 125 130 139 141 141 137 128 121 123 120 101 116 107 124 129 128 139 142 138 138 140 140 133
152 152 151 153 154 152 150 149 146 141 141 137 135 135 136 137 141 140 136 133 133 135 138 141 139 136 130 125 128 112 100 110 121 127 127 126 136 149 144 144 142 140 138
155 152 153 155 154 153 151 151 146 140 140 138 137 136 134 135 136 138 140 141 146 147 147 143 141 141 138 137 137 119 104 112 97 144 148 131 133 141 141 148 142 140 138
155 156 155 157 155 155 154 154 153 148 145 145 143 141 137 134 136 137 141 144 142 145 154 153 147 152 157 158 156 144 141 127 146 157 138 133 142 146 146 148 147 150 148
157 159 158 160 160 159 160 161 160 154 153 152 149 146 143 140 143 145 149 159 158 161 168 166 161 160 168 180 182 172 171 122 167 157 152 138 142 152 156 164 156 155 154
162 162 165 165 165 166 169 165 161 160 157 155 155 155 153 155 157 154 156 164 164 165 169 171 165 166 182 192 195 186 191 203 130 164 162 159 151 152 164 168 183 167 164
165 168 168 168 170 172 170 167 167 161 160 165 155 151 149 153 155 155 159 175 168 169 173 173 177 175 178 186 200 198 205 209 170 181 174 176 175 172 177 187 185 180 175
169 168 168 168 167 167 164 163 163 157 161 154 146 142 141 123 126 136 134 159 178 192 211 205 199 198 196 194 194 206 213 219 209 198 202 202 196 199 194 194 194 187 178
170 167 167 168 165 164 163 161 160 160 161 147 143 133 142 140 142 132 137 177 191 203 207 210 207 209 209 210 208 204 235 229 224 228 228 217 208 201 207 201 204 202 193
165 167 165 165 164 159 156 152 148 145 144 134 134 135 132 133 133 145 116 79 68 237 229 216 225 220 217 219 213 250 238 229 220 234 245 229 213 209 220 214 206 208 206
164 162 159 162 159 156 157 149 142 143 148 151 150 160 153 160 174 205 272 292 295 281 250 240 236 233 238 217 224 253 243 229 232 251 250 213 217 224 240 219 212 223 205
162 158 156 154 147 147 146 151 159 149 138 153 162 167 176 189 215 255 268 299 282 281 263 253 247 246 240 238 238 238 237 240 244 256 229 239 228 230 253 230 223 220 227
172 171 165 163 163 157 160 158 151 163 166 173 162 139 181 216 266 286 282 293 283 291 278 269 256 253 234 246 255 238 238 252 261 261 234 221 223 233 247 229 223 231 227
187 181 180 171 171 173 176 177 184 189 195 191 191 202 233 298 318 298 285 290 295 290 286 279 275 264 237 247 259 249 247 261 259 260 263 260 225 232 243 237 231 231 230
193 193 188 184 186 186 188 187 181 188 181 171 197 204 254 300 308 287 286 298 304 299 290 272 261 247 216 237 260 246 253 259 254 262 258 234 235 219 206 234 243 239 236
199 198 197 197 198 197 194 193 200 201 210 211 215 224 240 250 278 302 323 317 314 302 282 256 229 206 216 228 248 242 245 252 262 264 261 262 240 231 224 244 255 242 234
205 206 205 202 199 206 198 211 221 213 215 217 234 229 241 249 279 297 308 321 321 338 310 199 180 194 208 225 234 232 229 238 246 259 259 247 266 191 133 97 64 241 237
207 208 208 201 194 197 204 214 199 189 206 224 233 238 287 271 270 296 305 318 316 3 63 134 155 172 192 225 246 227 226 222 213 222 220 237 281 167 145 156 124 114 286
211 212 208 202 199 192 195 196 193 195 202 215 235 245 257 266 271 273 305 329 324 23 88 122 141 163 177 203 220 229 223 202 186 174 187 162 135 156 137 186 210 154 58
211 213 209 207 206 202 196 197 199 204 209 218 226 224 316 248 246 268 304 338 13 65 82 95 112 168 205 233 208 246 294 233 182 192 176 157 167 184 181 192 218 157 345
214 215 210 212 210 206 199 202 206 206 212 220 245 250 265 274 244 272 316 326 235 97 83 53 283 250 252 257 219 223 231 213 218 184 184 183 192 208 197 226 284 250 286
213 215 214 214 217 211 206 207 209 206 217 217 205 149 245 251 220 234 337 330 194 222 36 24 0 313 266 249 233 200 189 189 194 190 195 204 218 198 206 218 254 290 58
215 215 215 214 221 217 211 206 209 212 215 221 220 267 226 227 213 239 353 8 207 211 263 211 227 239 216 207 214 240 249 261 260 235 232 203 205 196 198 206 205 233 287
Wind_Speed_850mb
37 37 44 45 46 48 50 50 49 48 47 45 45 45 43 41 39 36 38 37 38 42 44 47 47 43 38 37 36 37 34 34 30 31 31 31 30 29 27 28 30 30 31
46 45 48 47 51 50 52 51 50 47 44 42 40 38 38 39 39 37 36 36 37 39 44 44 41 37 31 31 35 37 31 27 28 29 26 27 26 27 27 29 28 30 31
50 49 52 50 51 51 49 46 44 41 39 38 35 36 36 38 40 38 36 36 36 38 38 38 33 28 24 26 29 27 26 24 26 26 25 22 24 23 26 28 28 27 33
51 51 52 52 52 50 46 42 40 38 37 36 35 35 34 36 38 34 34 34 34 34 34 32 28 24 23 24 23 21 24 30 26 21 24 21 21 19 27 25 28 27 30
51 52 52 50 51 48 43 39 38 37 36 37 36 33 33 33 32 29 28 29 28 30 29 29 26 22 20 21 19 18 17 21 15 16 19 17 16 22 27 22 27 28 30
51 51 51 50 50 46 41 37 34 36 36 35 33 32 31 30 28 25 24 24 25 24 24 22 22 18 16 16 17 21 17 14 11 15 15 18 16 25 23 21 26 27 25
52 50 49 48 45 42 39 33 31 32 33 32 30 28 27 26 24 22 20 19 20 20 19 19 20 19 17 14 13 15 16 10 9 13 16 18 20 21 20 17 21 22 20
49 49 46 44 41 37 33 30 29 29 30 29 26 23 21 19 18 18 17 16 17 16 15 15 15 17 18 15 11 15 11 4 8 14 12 9 18 18 17 17 16 21 22
43 46 45 42 38 34 30 29 28 26 26 24 22 19 16 15 14 13 13 13 13 11 12 12 13 14 18 20 15 13 13 7 6 20 16 8 13 18 16 14 15 20 22
45 42 41 40 37 34 31 28 25 23 21 19 16 14 13 11 10 12 10 11 11 11 11 10 10 12 14 18 19 17 15 13 10 18 17 8 10 15 17 17 17 18 21
46 42 39 36 34 31 28 26 23 22 20 18 17 15 13 14 11 14 9 6 6 8 9 9 10 13 15 16 18 16 16 16 16 17 18 15 11 15 18 18 18 20 22
45 43 38 34 31 28 25 24 22 21 20 19 19 16 18 14 13 11 5 4 5 6 8 8 10 12 14 18 19 16 14 23 24 18 16 18 18 19 23 21 23 24 23
41 41 39 34 30 27 26 25 24 24 24 24 22 21 19 15 10 7 3 4 1 5 6 12 11 9 15 16 24 15 23 17 18 18 21 26 28 24 26 28 29 25 21
43 37 36 33 29 28 27 27 28 26 20 20 17 16 14 10 6 3 2 5 4 6 10 15 11 14 10 16 17 22 21 23 18 20 17 30 30 25 26 37 37 35 29
45 44 42 39 33 30 31 30 29 23 21 18 11 12 15 11 6 7 9 12 14 15 15 15 19 16 12 20 15 19 22 24 20 17 17 19 27 28 25 27 35 38 35
46 43 40 36 37 30 31 27 23 20 13 11 10 11 10 7 8 13 14 18 20 24 23 20 21 18 14 16 17 24 22 24 24 12 15 21 24 23 19 24 31 29 32
47 41 38 35 36 32 31 25 22 19 13 12 9 10 7 6 12 18 20 24 24 25 25 31 32 27 23 19 18 19 23 24 24 21 21 18 24 23 23 23 26 26 28
49 45 36 36 33 32 30 24 21 21 18 8 10 12 8 8 11 13 18 22 25 28 30 31 26 20 25 21 16 22 28 29 23 20 16 13 14 17 14 16 20 26 26
50 43 36 38 34 34 31 27 25 24 19 18 13 10 9 9 11 8 13 18 24 27 23 19 19 19 19 17 14 17 20 21 21 20 18 14 7 10 6 8 10 17 24
52 48 38 35 31 32 32 30 33 42 30 23 17 14 17 16 16 15 13 20 19 17 4 11 20 22 19 15 14 15 18 19 19 18 14 11 7 7 6 10 8 4 13
60 54 45 41 33 32 41 39 37 40 33 30 22 19 11 16 19 19 15 16 15 14 8 12 16 14 11 11 12 12 13 11 11 12 14 11 2 9 8 7 6 4 1
62 59 52 47 40 36 38 40 39 36 30 28 21 22 27 22 15 18 14 14 9 10 8 12 11 9 8 6 5 4 5 8 9 9 4 5 8 13 12 6 6 1 5
70 63 58 55 48 40 34 40 43 38 36 32 24 17 15 21 16 14 9 10 3 6 6 6 5 3 4 4 7 4 3 2 11 11 7 9 9 10 10 7 4 2 4
72 69 64 57 53 43 39 38 43 41 38 27 21 25 17 13 15 9 7 7 2 5 4 1 1 4 5 6 7 8 6 5 4 8 10 11 9 6 6 3 3 4 5
74 72 66 57 49 42 43 39 42 45 37 20 14 6 9 11 10 5 7 4 4 4 1 3 4 2 3 5 7 7 7 7 9 7 12 14 13 8 7 6 4 5 1
79 78 70 60 50 45 46 42 46 49 38 29 23 17 16 13 12 6 3 4 7 3 2 2 2 5 6 6 8 12 12 11 9 9 12 21 21 15 15 10 7 5 6
Wind_Direction_850mb
149 139 138 136 130 131 134 134 133 130 129 128 130 130 129 124 119 123 117 116 112 120 122 123 122 118 115 110 108 104 98 98 108 116 118 123 123 123 130 130 129 125 121
144 143 145 139 135 134 132 133 133 131 128 128 129 132 131 129 129 127 120 116 114 123 128 129 125 118 111 107 112 114 109 108 108 113 120 124 123 125 133 133 134 125 125
147 144 147 145 142 139 138 135 132 131 131 131 132 132 132 137 136 131 125 119 123 128 132 135 132 122 113 113 117 122 94 124 120 120 116 124 121 122 134 136 134 131 132
147 147 150 149 146 145 144 142 141 141 141 139 137 134 134 135 139 136 128 125 125 130 139 141 141 137 128 121 123 120 101 116 107 124 129 128 139 142 138 138 140 140 133
152 152 151 153 154 152 150 149 146 141 141 137 135 135 136 137 141 140 136 133 133 135 138 141 139 136 130 125 128 112 100 110 121 127 127 126 136 149 144 144 142 140 138
155 152 153 155 154 153 151 151 146 140 140 138 137 136 134 135 136 138 140 141 146 147 147 143 141 141 138 137 137 119 104 112 97 144 148 131 133 141 141 148 142 140 138
155 156 155 157 155 155 154 154 153 148 145 145 143 141 137 134 136 137 141 144 142 145 154 153 147 152 157 158 156 144 141 127 146 157 138 133 142 146 146 148 147 150 148
157 159 158 160 160 159 160 161 160 154 153 152 149 146 143 140 143 145 149 159 158 161 168 166 161 160 168 180 182 172 171 122 167 157 152 138 142 152 156 164 156 155 154
162 162 165 165 165 166 169 165 161 160 157 155 155 155 153 155 157 154 156 164 164 165 169 171 165 166 182 192 195 186 191 203 130 164 162 159 151 152 164 168 183 167 164
165 168 168 168 170 172 170 167 167 161 160 165 155 151 149 153 155 155 159 175 168 169 173 173 177 175 178 186 200 198 205 209 170 181 174 176 175 172 177 187 185 180 175
169 168 168 168 167 167 164 163 163 157 161 154 146 142 141 123 126 136 134 159 178 192 211 205 199 198 196 194 194 206 213 219 209 198 202 202 196 199 194 194 194 187 178
170 167 167 168 165 164 163 161 160 160 161 147 143 133 142 140 142 132 137 177 191 203 207 210 207 209 209 210 208 204 235 229 224 228 228 217 208 201 207 201 204 202 193
165 167 165 165 164 159 156 152 148 145 144 134 134 135 132 133 133 145 116 79 68 237 229 216 225 220 217 219 213 250 238 229 220 234 245 229 213 209 220 214 206 208 206
164 162 159 162 159 156 157 149 142 143 148 151 150 160 153 160 174 205 272 292 295 281 250 240 236 233 238 217 224 253 243 229 232 251 250 213 217 224 240 219 212 223 205
162 158 156 154 147 147 146 151 159 149 138 153 162 167 176 189 215 255 268 299 282 281 263 253 247 246 240 238 238 238 237 240 244 256 229 239 228 230 253 230 223 220 227
172 171 165 163 163 157 160 158 151 163 166 173 162 139 181 216 266 286 282 293 283 291 278 269 256 253 234 246 255 238 238 252 261 261 234 221 223 233 247 229 223 231 227
187 181 180 171 171 173 176 177 184 189 195 191 191 202 233 298 318 298 285 290 295 290 286 279 275 264 237 247 259 249 247 261 259 260 263 260 225 232 243 237 231 231 230
193 193 188 184 186 186 188 187 181 188 181 171 197 204 254 300 308 287 286 298 304 299 290 272 261 247 216 237 260 246 253 259 254 262 258 234 235 219 206 234 243 239 236
199 198 197 197 198 197 194 193 200 201 210 211 215 224 240 250 278 302 323 317 314 302 282 256 229 206 216 228 248 242 245 252 262 264 261 262 240 231 224 244 255 242 234
205 206 205 202 199 206 198 211 221 213 215 217 234 229 241 249 279 297 308 321 321 338 310 199 180 194 208 225 234 232 229 238 246 259 259 247 266 191 133 97 64 241 237
207 208 208 201 194 197 204 214 199 189 206 224 233 238 287 271 270 296 305 318 316 3 63 134 155 172 192 225 246 227 226 222 213 222 220 237 281 167 145 156 124 114 286
211 212 208 202 199 192 195 196 193 195 202 215 235 245 257 266 271 273 305 329 324 23 88 122 141 163 177 203 220 229 223 202 186 174 187 162 135 156 137 186 210 154 58
211 213 209 207 206 202 196 197 199 204 209 218 226 224 316 248 246 268 304 338 13 65 82 95 112 168 205 233 208 246 294 233 182 192 176 157 167 184 181 192 218 157 345
214 215 210 212 210 206 199 202 206 206 212 220 245 250 265 274 244 272 316 326 235 97 83 53 283 250 252 257 219 223 231 213 218 184 184 183 192 208 197 226 284 250 286
213 215 214 214 217 211 206 207 209 206 217 217 205 149 245 251 220 234 337 330 194 222 36 24 0 313 266 249 233 200 189 189 194 190 195 204 218 198 206 218 254 290 58
215 215 215 214 221 217 211 206 209 212 215 221 220 267 226 227 213 239 353 8 207 211 263 211 227 239 216 207 214 240 249 261 260 235 232 203 205 196 198 206 205 233 287